Time,TemperatureF,DewpointF,PressureIn,WindDirection,WindDirectionDegrees,WindSpeedMPH,WindSpeedGustMPH,Humidity,HourlyPrecipIn,Conditions,Clouds,dailyrainin,SolarRadiationWatts/m^2,SoftwareType,DateUTC
2013-02-20 00:01:00,40.0,13.0,-100.00,WSW,257,5.0,16.0,32,0.00,,,0.60,55.000000,,2013-02-20 00:01:00,
2013-02-20 00:11:00,40.0,13.0,-100.00,WSW,257,5.0,16.0,32,0.00,,,0.60,55.000000,,2013-02-20 00:11:00,
2013-02-20 00:21:00,40.0,13.0,-100.00,WSW,257,5.0,16.0,32,0.00,,,0.60,55.000000,,2013-02-20 00:21:00,
2013-02-20 00:32:00,40.0,13.0,-100.00,WSW,257,5.0,16.0,32,0.00,,,0.60,55.000000,,2013-02-20 00:32:00,
2013-02-20 01:02:00,38.0,13.0,-100.00,West,266,3.0,15.0,35,0.00,,,0.58,1.000000,,2013-02-20 01:02:00,
2013-02-20 01:11:00,38.0,13.0,-100.00,West,266,3.0,15.0,35,0.00,,,0.58,1.000000,,2013-02-20 01:11:00,
2013-02-20 01:21:00,38.0,13.0,-100.00,West,266,3.0,15.0,35,0.00,,,0.58,1.000000,,2013-02-20 01:21:00,
2013-02-20 01:32:00,38.0,13.0,-100.00,West,266,3.0,15.0,35,0.00,,,0.58,1.000000,,2013-02-20 01:32:00,
2013-02-20 02:02:00,33.0,16.0,-100.00,West,280,2.0,5.0,50,0.00,,,0.43,0.000000,,2013-02-20 02:02:00,
2013-02-20 02:11:00,33.0,16.0,-100.00,West,280,2.0,5.0,50,0.00,,,0.43,0.000000,,2013-02-20 02:11:00,
2013-02-20 02:21:00,33.0,16.0,-100.00,West,280,2.0,5.0,50,0.00,,,0.43,0.000000,,2013-02-20 02:21:00,
2013-02-20 02:32:00,33.0,16.0,-100.00,West,280,2.0,5.0,50,0.00,,,0.43,0.000000,,2013-02-20 02:32:00,
2013-02-20 03:02:00,32.0,16.0,-100.00,West,267,2.0,6.0,51,0.00,,,0.30,0.000000,,2013-02-20 03:02:00,
2013-02-20 03:12:00,32.0,16.0,-100.00,West,267,2.0,6.0,51,0.00,,,0.30,0.000000,,2013-02-20 03:12:00,
2013-02-20 03:22:00,32.0,16.0,-100.00,West,267,2.0,6.0,51,0.00,,,0.30,0.000000,,2013-02-20 03:22:00,
2013-02-20 03:32:00,32.0,16.0,-100.00,West,267,2.0,6.0,51,0.00,,,0.30,0.000000,,2013-02-20 03:32:00,
2013-02-20 04:01:00,33.0,12.0,-100.00,WNW,298,2.0,9.0,42,0.00,,,0.05,0.000000,,2013-02-20 04:01:00,
2013-02-20 04:11:00,33.0,12.0,-100.00,WNW,298,2.0,9.0,42,0.00,,,0.05,0.000000,,2013-02-20 04:11:00,
2013-02-20 04:21:00,33.0,12.0,-100.00,WNW,298,2.0,9.0,42,0.00,,,0.05,0.000000,,2013-02-20 04:21:00,
2013-02-20 04:31:00,33.0,12.0,-100.00,WNW,298,2.0,9.0,42,0.00,,,0.05,0.000000,,2013-02-20 04:31:00,
2013-02-20 05:02:00,32.0,13.0,-100.00,NNW,348,3.0,7.0,44,0.00,,,0.00,0.000000,,2013-02-20 05:02:00,
2013-02-20 05:12:00,32.0,13.0,-100.00,NNW,348,3.0,7.0,44,0.00,,,0.00,0.000000,,2013-02-20 05:12:00,
2013-02-20 05:22:00,32.0,13.0,-100.00,NNW,348,3.0,7.0,44,0.00,,,0.00,0.000000,,2013-02-20 05:22:00,
2013-02-20 05:32:00,32.0,13.0,-100.00,NNW,348,3.0,7.0,44,0.00,,,0.00,0.000000,,2013-02-20 05:32:00,
2013-02-20 06:01:00,29.0,12.0,-100.00,NNE,20,2.0,8.0,48,0.00,,,0.00,0.000000,,2013-02-20 06:01:00,
2013-02-20 06:11:00,29.0,12.0,-100.00,NNE,20,2.0,8.0,48,0.00,,,0.00,0.000000,,2013-02-20 06:11:00,
2013-02-20 06:21:00,29.0,12.0,-100.00,NNE,20,2.0,8.0,48,0.00,,,0.00,0.000000,,2013-02-20 06:21:00,
2013-02-20 06:31:00,29.0,12.0,-100.00,NNE,20,2.0,8.0,48,0.00,,,0.00,0.000000,,2013-02-20 06:31:00,
2013-02-20 07:01:00,27.0,16.0,-100.00,North,9,2.0,6.0,62,0.00,,,0.00,0.000000,,2013-02-20 07:01:00,
2013-02-20 07:11:00,27.0,16.0,-100.00,North,9,2.0,6.0,62,0.00,,,0.00,0.000000,,2013-02-20 07:11:00,
2013-02-20 07:21:00,27.0,16.0,-100.00,North,9,2.0,6.0,62,0.00,,,0.00,0.000000,,2013-02-20 07:21:00,
2013-02-20 07:31:00,27.0,16.0,-100.00,North,9,2.0,6.0,62,0.00,,,0.00,0.000000,,2013-02-20 07:31:00,
2013-02-20 08:05:00,25.0,15.0,-100.00,North,9,2.0,6.0,65,0.00,,,0.00,0.000000,,2013-02-20 08:05:00,
2013-02-20 08:11:00,25.0,15.0,-100.00,North,9,2.0,6.0,65,0.00,,,0.00,0.000000,,2013-02-20 08:11:00,
2013-02-20 08:21:00,25.0,15.0,-100.00,North,9,2.0,6.0,65,0.00,,,0.00,0.000000,,2013-02-20 08:21:00,
2013-02-20 08:31:00,25.0,15.0,-100.00,North,9,2.0,6.0,65,0.00,,,0.00,0.000000,,2013-02-20 08:31:00,
2013-02-20 09:01:00,25.0,14.0,-100.00,NNW,337,1.0,7.0,62,0.00,,,0.00,0.000000,,2013-02-20 09:01:00,
2013-02-20 09:11:00,25.0,14.0,-100.00,NNW,337,1.0,7.0,62,0.00,,,0.00,0.000000,,2013-02-20 09:11:00,
2013-02-20 09:21:00,25.0,14.0,-100.00,NNW,337,1.0,7.0,62,0.00,,,0.00,0.000000,,2013-02-20 09:21:00,
2013-02-20 09:31:00,25.0,14.0,-100.00,NNW,337,1.0,7.0,62,0.00,,,0.00,0.000000,,2013-02-20 09:31:00,
2013-02-20 10:01:00,24.0,11.0,-100.00,North,353,2.0,6.0,57,0.00,,,0.00,0.000000,,2013-02-20 10:01:00,
2013-02-20 10:12:00,24.0,11.0,-100.00,North,353,2.0,6.0,57,0.00,,,0.00,0.000000,,2013-02-20 10:12:00,
2013-02-20 10:22:00,24.0,11.0,-100.00,North,353,2.0,6.0,57,0.00,,,0.00,0.000000,,2013-02-20 10:22:00,
2013-02-20 10:32:00,24.0,11.0,-100.00,North,353,2.0,6.0,57,0.00,,,0.00,0.000000,,2013-02-20 10:32:00,
2013-02-20 11:02:00,23.0,10.0,-100.00,North,356,2.0,8.0,56,0.00,,,0.00,0.000000,,2013-02-20 11:02:00,
2013-02-20 11:11:00,23.0,10.0,-100.00,North,356,2.0,8.0,56,0.00,,,0.00,0.000000,,2013-02-20 11:11:00,
2013-02-20 11:21:00,23.0,10.0,-100.00,North,356,2.0,8.0,56,0.00,,,0.00,0.000000,,2013-02-20 11:21:00,
2013-02-20 11:32:00,23.0,10.0,-100.00,North,356,2.0,8.0,56,0.00,,,0.00,0.000000,,2013-02-20 11:32:00,
2013-02-20 12:02:00,21.0,9.0,-100.00,NNE,18,1.0,3.0,60,0.00,,,0.00,0.000000,,2013-02-20 12:02:00,
2013-02-20 12:12:00,21.0,9.0,-100.00,NNE,18,1.0,3.0,60,0.00,,,0.00,0.000000,,2013-02-20 12:12:00,
2013-02-20 12:21:00,21.0,9.0,-100.00,NNE,18,1.0,3.0,60,0.00,,,0.00,0.000000,,2013-02-20 12:21:00,
2013-02-20 12:32:00,21.0,9.0,-100.00,NNE,18,1.0,3.0,60,0.00,,,0.00,0.000000,,2013-02-20 12:32:00,
2013-02-20 13:01:00,21.0,10.0,-100.00,NE,39,2.0,4.0,63,0.00,,,0.00,1.000000,,2013-02-20 13:01:00,
2013-02-20 13:11:00,21.0,10.0,-100.00,NE,39,2.0,4.0,63,0.00,,,0.00,1.000000,,2013-02-20 13:11:00,
2013-02-20 13:22:00,21.0,10.0,-100.00,NE,39,2.0,4.0,63,0.00,,,0.00,1.000000,,2013-02-20 13:22:00,
2013-02-20 13:31:00,21.0,10.0,-100.00,NE,39,2.0,4.0,63,0.00,,,0.00,1.000000,,2013-02-20 13:31:00,
2013-02-20 14:01:00,25.0,10.0,-100.00,NW,317,3.0,6.0,53,0.00,,,0.00,63.000000,,2013-02-20 14:01:00,
2013-02-20 14:11:00,25.0,10.0,-100.00,NW,317,3.0,6.0,53,0.00,,,0.00,63.000000,,2013-02-20 14:11:00,
2013-02-20 14:21:00,25.0,10.0,-100.00,NW,317,3.0,6.0,53,0.00,,,0.00,63.000000,,2013-02-20 14:21:00,
2013-02-20 14:32:00,25.0,10.0,-100.00,NW,317,3.0,6.0,53,0.00,,,0.00,63.000000,,2013-02-20 14:32:00,
2013-02-20 15:01:00,27.0,11.0,-100.00,NNE,28,4.0,8.0,50,0.00,,,0.00,224.000000,,2013-02-20 15:01:00,
2013-02-20 15:11:00,27.0,11.0,-100.00,NNE,28,4.0,8.0,50,0.00,,,0.00,224.000000,,2013-02-20 15:11:00,
2013-02-20 15:22:00,27.0,11.0,-100.00,NNE,28,4.0,8.0,50,0.00,,,0.00,224.000000,,2013-02-20 15:22:00,
2013-02-20 15:32:00,27.0,11.0,-100.00,NNE,28,4.0,8.0,50,0.00,,,0.00,224.000000,,2013-02-20 15:32:00,
2013-02-20 16:01:00,29.0,11.0,-100.00,NNW,344,3.0,8.0,46,0.00,,,0.00,415.000000,,2013-02-20 16:01:00,
2013-02-20 16:12:00,29.0,11.0,-100.00,NNW,344,3.0,8.0,46,0.00,,,0.00,415.000000,,2013-02-20 16:12:00,
2013-02-20 16:21:00,29.0,11.0,-100.00,NNW,344,3.0,8.0,46,0.00,,,0.00,415.000000,,2013-02-20 16:21:00,
2013-02-20 16:32:00,29.0,11.0,-100.00,NNW,344,3.0,8.0,46,0.00,,,0.00,415.000000,,2013-02-20 16:32:00,
2013-02-20 17:01:00,30.0,10.0,-100.00,NNE,31,4.0,9.0,43,0.00,,,0.00,285.000000,,2013-02-20 17:01:00,
2013-02-20 17:11:00,30.0,10.0,-100.00,NNE,31,4.0,9.0,43,0.00,,,0.00,285.000000,,2013-02-20 17:11:00,
2013-02-20 17:21:00,30.0,10.0,-100.00,NNE,31,4.0,9.0,43,0.00,,,0.00,285.000000,,2013-02-20 17:21:00,
2013-02-20 17:32:00,30.0,10.0,-100.00,NNE,31,4.0,9.0,43,0.00,,,0.00,285.000000,,2013-02-20 17:32:00,
2013-02-20 18:02:00,31.0,10.0,-100.00,NE,44,4.0,9.0,41,0.00,,,0.00,297.000000,,2013-02-20 18:02:00,
2013-02-20 18:11:00,31.0,10.0,-100.00,NE,44,4.0,9.0,41,0.00,,,0.00,297.000000,,2013-02-20 18:11:00,
2013-02-20 18:21:00,31.0,10.0,-100.00,NE,44,4.0,9.0,41,0.00,,,0.00,297.000000,,2013-02-20 18:21:00,
2013-02-20 18:32:00,31.0,10.0,-100.00,NE,44,4.0,9.0,41,0.00,,,0.00,297.000000,,2013-02-20 18:32:00,
2013-02-20 19:01:00,31.0,10.0,-100.00,NW,321,3.0,9.0,41,0.00,,,0.00,276.000000,,2013-02-20 19:01:00,
2013-02-20 19:11:00,31.0,10.0,-100.00,NW,321,3.0,9.0,41,0.00,,,0.00,276.000000,,2013-02-20 19:11:00,
2013-02-20 19:21:00,31.0,10.0,-100.00,NW,321,3.0,9.0,41,0.00,,,0.00,276.000000,,2013-02-20 19:21:00,
2013-02-20 19:31:00,31.0,10.0,-100.00,NW,321,3.0,9.0,41,0.00,,,0.00,276.000000,,2013-02-20 19:31:00,
2013-02-20 20:01:00,31.0,12.0,-100.00,WNW,292,5.0,8.0,45,0.00,,,0.00,215.000000,,2013-02-20 20:01:00,
2013-02-20 20:11:00,31.0,12.0,-100.00,WNW,292,5.0,8.0,45,0.00,,,0.00,215.000000,,2013-02-20 20:11:00,
2013-02-20 20:21:00,31.0,12.0,-100.00,WNW,292,5.0,8.0,45,0.00,,,0.00,215.000000,,2013-02-20 20:21:00,
2013-02-20 20:31:00,31.0,12.0,-100.00,WNW,292,5.0,8.0,45,0.00,,,0.00,215.000000,,2013-02-20 20:31:00,
2013-02-20 20:52:00,32.0,12.0,-100.00,NNE,25,4.0,9.0,43,0.00,,,0.00,162.000000,,2013-02-20 20:52:00,
2013-02-20 21:01:00,32.0,12.0,-100.00,NNE,25,4.0,9.0,43,0.00,,,0.00,162.000000,,2013-02-20 21:01:00,
2013-02-20 21:11:00,32.0,12.0,-100.00,NNE,25,4.0,9.0,43,0.00,,,0.00,162.000000,,2013-02-20 21:11:00,
2013-02-20 21:21:00,32.0,12.0,-100.00,NNE,25,4.0,9.0,43,0.00,,,0.00,162.000000,,2013-02-20 21:21:00,
2013-02-20 21:31:00,32.0,12.0,-100.00,NNE,25,4.0,9.0,43,0.00,,,0.00,162.000000,,2013-02-20 21:31:00,
2013-02-20 21:52:00,34.0,13.0,-100.00,NE,45,5.0,11.0,42,0.00,,,0.00,267.000000,,2013-02-20 21:52:00,
2013-02-20 22:01:00,34.0,13.0,-100.00,NE,45,5.0,11.0,42,0.00,,,0.00,267.000000,,2013-02-20 22:01:00,
2013-02-20 22:11:00,34.0,13.0,-100.00,NE,45,5.0,11.0,42,0.00,,,0.00,267.000000,,2013-02-20 22:11:00,
2013-02-20 22:21:00,34.0,13.0,-100.00,NE,45,5.0,11.0,42,0.00,,,0.00,267.000000,,2013-02-20 22:21:00,
2013-02-20 22:31:00,34.0,13.0,-100.00,NE,45,5.0,11.0,42,0.00,,,0.00,267.000000,,2013-02-20 22:31:00,
2013-02-20 23:12:00,32.0,13.0,-100.00,NE,42,5.0,10.0,45,0.00,,,0.00,271.000000,,2013-02-20 23:12:00,
2013-02-20 23:22:00,32.0,13.0,-100.00,NE,42,5.0,10.0,45,0.00,,,0.00,271.000000,,2013-02-20 23:22:00,
2013-02-20 23:32:00,32.0,13.0,-100.00,NE,42,5.0,10.0,45,0.00,,,0.00,271.000000,,2013-02-20 23:32:00,